{"data":{"norad_id":66540,"intl_designator":"2025-265AA","name":"STARLINK-35818","alt_names":[],"object_type":"PAYLOAD","status":"ACTIVE","operator":null,"country":"US","launch_date":"2025-11-19","launch_site_code":"AFETR","launch_vehicle":null,"mission":null,"orbit_class":"UNKNOWN","rcs_meters":null,"size_class":null,"mass_kg":null,"dimensions":null,"purposes":["comms"],"wikipedia_slug":null,"has_3d_model":false,"image_url":null,"decayed_at":null,"tle_current":{"epoch":"2026-09-20T01:15:14.465664Z","epoch_age_seconds":128041,"freshness":"FRESH","line1":"1 66540U 25265AA  26263.05225076  .00010608  00000+0  39441-3 0  9995","line2":"2 66540  43.0028 260.7096 0001361 276.5500  83.5197 15.27582340 46837","mean_motion":15.2758234,"eccentricity":0.0001361,"inclination_deg":43.0028,"raan_deg":260.7096,"arg_perigee_deg":276.55,"mean_anomaly_deg":83.5197,"bstar":0.00039441,"rev_number":4683,"period_min":94.266604312799,"perigee_km":482.10828277274,"apogee_km":483.97589572083,"semimajor_km":6861.1790892468,"source":"CELESTRAK","updated_at":"2026-09-21T09:00:35.968328Z"}}}